Location: Frizzleburg
(41.0764°N, 80.4548°W)
Time: 14:04:20
(UTC+00:00)

Cosmos 1447 Rocket - Pass Details

Date: 17 November 2019
Orbit: 955 x 995 km, 82.9° (Epoch: 10 December)

Event Time Altitude Azimuth Distance (km) Brightness Sun altitude
Rises 09:56:33 0° 350° (N) 3,722 7.4 -25.4°
Reaches altitude 10° 09:59:06 10° 349° (N) 2,769 6.7 -24.9°
Maximum altitude 10:05:27 75° 266° (W) 1,028 4.4 -23.7°
Drops below altitude 10° 10:11:43 10° 182° (S) 2,741 6.9 -22.5°
Sets 10:14:14 0° 180° (S) 3,682 7.6 -22.0°
